INTELSAT 36 (IS-36)

Last updated on Jan. 18, 2020, 4:38 a.m. UTC

1 41747U 16053A   20017.52996257 -.00000028  00000-0  00000-0 0  9994
2 41747   0.0155  56.4648 0001226 309.3806   9.8105  1.00271447 12472
UTC
Height (km)
Latitude
Longitude
Inclination
Orbital Period
UTC large
Height (km)
Speed (km/s)
/
Latitude / Longitude
Inclination (degrees)
Orbital Period (minutes)
Azimuth
Elevation
Range (km)
Doppler Factor
iOS Compass Heading
iOS Angle

Next 30 passes for location: Hong Kong

Rise time Rise Azimuth (degrees) Set time Set Azimuth (degrees) Duration Max altitude (degrees)

No matching passes for this satellites